Time,TemperatureF,DewpointF,PressureIn,WindDirection,WindDirectionDegrees,WindSpeedMPH,WindSpeedGustMPH,Humidity,HourlyPrecipIn,Conditions,Clouds,dailyrainin,SoftwareType,DateUTC
2013-02-09 00:00:00,25.7,17.3,29.21,North,0,6.3,9.4,70,0.00,,,0.00,WUHU216WMR100,2013-02-09 05:00:00,
2013-02-09 00:05:00,25.7,17.3,29.21,SSE,157,10.3,15.4,70,0.00,,,0.00,WUHU216WMR100,2013-02-09 05:05:00,
2013-02-09 00:10:00,25.7,17.6,29.21,North,0,5.8,15.4,71,0.00,,,0.00,WUHU216WMR100,2013-02-09 05:10:00,
2013-02-09 00:15:00,25.5,17.8,29.21,NNW,337,4.0,10.3,72,0.00,,,0.00,WUHU216WMR100,2013-02-09 05:15:00,
2013-02-09 00:20:00,25.5,17.8,29.21,WNW,292,4.0,8.1,72,0.00,,,0.00,WUHU216WMR100,2013-02-09 05:20:00,
2013-02-09 00:25:00,25.5,17.5,29.21,NW,315,4.5,11.9,71,0.00,,,0.00,WUHU216WMR100,2013-02-09 05:25:00,
2013-02-09 00:30:00,25.5,17.5,29.21,North,0,6.3,11.9,71,0.00,,,0.00,WUHU216WMR100,2013-02-09 05:30:00,
2013-02-09 00:35:00,25.7,18.0,29.21,WSW,247,4.7,9.6,72,0.00,,,0.00,WUHU216WMR100,2013-02-09 05:35:00,
2013-02-09 00:40:00,25.7,18.0,29.21,North,0,4.0,10.1,72,0.00,,,0.00,WUHU216WMR100,2013-02-09 05:40:00,
2013-02-09 00:45:00,25.7,18.0,29.21,NNW,337,5.8,10.1,72,0.00,,,0.00,WUHU216WMR100,2013-02-09 05:45:00,
2013-02-09 00:50:00,25.7,18.0,29.21,North,0,3.4,9.6,72,0.00,,,0.00,WUHU216WMR100,2013-02-09 05:50:00,
2013-02-09 00:55:00,25.5,18.1,29.21,NNW,337,3.8,9.6,73,0.00,,,0.00,WUHU216WMR100,2013-02-09 05:55:00,
2013-02-09 01:00:00,25.5,18.1,29.21,WNW,292,5.8,9.6,73,0.00,,,0.00,WUHU216WMR100,2013-02-09 06:00:00,
2013-02-09 01:05:00,25.5,18.1,29.23,NNE,22,4.7,9.6,73,0.00,,,0.00,WUHU216WMR100,2013-02-09 06:05:00,
2013-02-09 01:10:00,25.5,18.1,29.23,NNW,337,4.0,7.6,73,0.00,,,0.00,WUHU216WMR100,2013-02-09 06:10:00,
2013-02-09 01:15:00,25.5,18.4,29.23,NNW,337,2.9,6.3,74,0.00,,,0.00,WUHU216WMR100,2013-02-09 06:15:00,
2013-02-09 01:20:00,25.5,18.4,29.23,NNW,337,3.6,8.7,74,0.00,,,0.00,WUHU216WMR100,2013-02-09 06:20:00,
2013-02-09 01:25:00,25.5,18.1,29.23,NNW,337,3.1,8.7,73,0.00,,,0.00,WUHU216WMR100,2013-02-09 06:25:00,
2013-02-09 01:30:00,25.5,18.1,29.23,North,0,4.3,8.7,73,0.00,,,0.00,WUHU216WMR100,2013-02-09 06:30:00,
2013-02-09 01:35:00,25.5,18.1,29.23,NNW,337,4.0,8.5,73,0.00,,,0.00,WUHU216WMR100,2013-02-09 06:35:00,
2013-02-09 01:40:00,25.5,18.1,29.23,NNW,337,4.5,8.5,73,0.00,,,0.00,WUHU216WMR100,2013-02-09 06:40:00,
2013-02-09 01:45:00,25.5,18.1,29.23,WSW,247,3.1,8.1,73,0.00,,,0.00,WUHU216WMR100,2013-02-09 06:45:00,
2013-02-09 01:50:00,25.5,18.1,29.23,West,270,3.4,7.4,73,0.00,,,0.00,WUHU216WMR100,2013-02-09 06:50:00,
2013-02-09 01:55:00,25.5,18.1,29.23,NNE,22,6.0,11.2,73,0.00,,,0.00,WUHU216WMR100,2013-02-09 06:55:00,
2013-02-09 02:00:00,25.5,17.8,29.23,WNW,292,4.3,11.2,72,0.00,,,0.00,WUHU216WMR100,2013-02-09 07:00:00,
2013-02-09 02:05:00,25.5,17.8,29.23,WSW,247,2.0,7.4,72,0.00,,,0.00,WUHU216WMR100,2013-02-09 07:05:00,
2013-02-09 02:10:00,25.5,17.8,29.23,WNW,292,7.2,7.8,72,0.00,,,0.00,WUHU216WMR100,2013-02-09 07:10:00,
2013-02-09 02:15:00,25.5,17.8,29.23,WNW,292,4.3,7.8,72,0.00,,,0.00,WUHU216WMR100,2013-02-09 07:15:00,
2013-02-09 02:20:00,25.5,17.8,29.23,WNW,292,2.9,7.6,72,0.00,,,0.00,WUHU216WMR100,2013-02-09 07:20:00,
2013-02-09 02:25:00,25.5,17.8,29.23,NNW,337,2.7,7.6,72,0.00,,,0.00,WUHU216WMR100,2013-02-09 07:25:00,
2013-02-09 02:30:00,25.5,17.8,29.23,NW,315,6.0,7.6,72,0.00,,,0.00,WUHU216WMR100,2013-02-09 07:30:00,
2013-02-09 02:35:00,25.5,17.5,29.23,NNW,337,3.4,7.2,71,0.00,,,0.00,WUHU216WMR100,2013-02-09 07:35:00,
2013-02-09 02:40:00,25.5,17.1,29.23,NW,315,3.8,8.7,70,0.00,,,0.00,WUHU216WMR100,2013-02-09 07:40:00,
2013-02-09 02:45:00,25.5,16.8,29.23,NNW,337,3.6,8.7,69,0.00,,,0.00,WUHU216WMR100,2013-02-09 07:45:00,
2013-02-09 02:50:00,25.5,16.5,29.23,North,0,5.8,8.1,68,0.00,,,0.00,WUHU216WMR100,2013-02-09 07:50:00,
2013-02-09 02:55:00,25.5,15.8,29.23,NNW,337,5.4,8.7,66,0.00,,,0.00,WUHU216WMR100,2013-02-09 07:55:00,
2013-02-09 03:00:00,25.5,15.4,29.23,NW,315,6.0,9.2,65,0.00,,,0.00,WUHU216WMR100,2013-02-09 08:00:00,
2013-02-09 03:05:00,25.7,15.3,29.26,NW,315,4.5,9.2,64,0.00,,,0.00,WUHU216WMR100,2013-02-09 08:05:00,
2013-02-09 03:10:00,25.7,14.9,29.26,NNW,337,5.4,9.2,63,0.00,,,0.00,WUHU216WMR100,2013-02-09 08:10:00,
2013-02-09 03:15:00,25.7,14.5,29.26,NNW,337,4.5,13.2,62,0.00,,,0.00,WUHU216WMR100,2013-02-09 08:15:00,
2013-02-09 03:20:00,25.5,14.3,29.23,ENE,67,5.8,13.2,62,0.00,,,0.00,WUHU216WMR100,2013-02-09 08:20:00,
2013-02-09 03:25:00,25.7,14.1,29.23,WNW,292,4.5,11.0,61,0.00,,,0.00,WUHU216WMR100,2013-02-09 08:25:00,
2013-02-09 03:30:00,25.5,14.3,29.23,North,0,4.9,11.0,62,0.00,,,0.00,WUHU216WMR100,2013-02-09 08:30:00,
2013-02-09 03:35:00,25.5,14.7,29.23,SW,225,3.6,11.0,63,0.00,,,0.00,WUHU216WMR100,2013-02-09 08:35:00,
2013-02-09 03:40:00,25.5,15.4,29.23,NW,315,3.1,7.8,65,0.00,,,0.00,WUHU216WMR100,2013-02-09 08:40:00,
2013-02-09 03:45:00,25.3,15.6,29.23,NNE,22,2.9,7.8,66,0.00,,,0.00,WUHU216WMR100,2013-02-09 08:45:00,
2013-02-09 03:50:00,25.3,15.6,29.23,North,0,3.6,6.0,66,0.00,,,0.00,WUHU216WMR100,2013-02-09 08:50:00,
2013-02-09 03:55:00,25.3,16.3,29.23,NNW,337,2.5,5.4,68,0.00,,,0.00,WUHU216WMR100,2013-02-09 08:55:00,
2013-02-09 04:00:00,25.3,16.3,29.23,WNW,292,2.2,3.6,68,0.00,,,0.00,WUHU216WMR100,2013-02-09 09:00:00,
2013-02-09 04:05:00,25.3,16.6,29.26,WNW,292,3.8,5.4,69,0.00,,,0.00,WUHU216WMR100,2013-02-09 09:05:00,
2013-02-09 04:10:00,25.3,16.9,29.26,NNW,337,3.1,5.4,70,0.00,,,0.00,WUHU216WMR100,2013-02-09 09:10:00,
2013-02-09 04:15:00,25.3,16.9,29.26,NNW,337,3.1,5.4,70,0.00,,,0.00,WUHU216WMR100,2013-02-09 09:15:00,
2013-02-09 04:20:00,25.3,16.6,29.26,NNW,337,4.3,5.4,69,0.00,,,0.00,WUHU216WMR100,2013-02-09 09:20:00,
2013-02-09 04:25:00,25.3,15.6,29.26,NNW,337,3.6,8.7,66,0.00,,,0.00,WUHU216WMR100,2013-02-09 09:25:00,
2013-02-09 04:30:00,25.3,15.9,29.26,NW,315,3.1,8.7,67,0.00,,,0.00,WUHU216WMR100,2013-02-09 09:30:00,
2013-02-09 04:35:00,25.3,16.3,29.26,North,0,1.6,6.5,68,0.00,,,0.00,WUHU216WMR100,2013-02-09 09:35:00,
2013-02-09 04:40:00,25.3,16.3,29.26,WSW,247,5.8,6.7,68,0.00,,,0.00,WUHU216WMR100,2013-02-09 09:40:00,
2013-02-09 04:45:00,25.3,16.3,29.26,NNW,337,3.8,6.7,68,0.00,,,0.00,WUHU216WMR100,2013-02-09 09:45:00,
2013-02-09 04:50:00,25.3,16.3,29.26,NNW,337,2.9,7.2,68,0.00,,,0.00,WUHU216WMR100,2013-02-09 09:50:00,
2013-02-09 04:55:00,25.3,16.3,29.26,NNW,337,3.1,7.2,68,0.00,,,0.00,WUHU216WMR100,2013-02-09 09:55:00,
2013-02-09 05:00:00,25.3,16.3,29.26,NW,315,4.3,5.8,68,0.00,,,0.00,WUHU216WMR100,2013-02-09 10:00:00,
2013-02-09 05:05:00,25.3,16.6,29.26,NNW,337,4.9,6.5,69,0.00,,,0.00,WUHU216WMR100,2013-02-09 10:05:00,
2013-02-09 05:10:00,25.3,16.9,29.26,NNW,337,4.7,7.4,70,0.00,,,0.00,WUHU216WMR100,2013-02-09 10:10:00,
2013-02-09 05:15:00,25.3,16.6,29.26,NNW,337,3.1,7.4,69,0.00,,,0.00,WUHU216WMR100,2013-02-09 10:15:00,
2013-02-09 05:20:00,25.3,16.6,29.29,WNW,292,4.5,6.7,69,0.00,,,0.00,WUHU216WMR100,2013-02-09 10:20:00,
2013-02-09 05:25:00,25.3,16.3,29.29,WSW,247,4.7,6.5,68,0.00,,,0.00,WUHU216WMR100,2013-02-09 10:25:00,
2013-02-09 05:31:00,25.3,15.9,29.29,WNW,292,3.4,8.9,67,0.00,,,0.00,WUHU216WMR100,2013-02-09 10:31:00,
2013-02-09 05:36:00,25.3,15.9,29.29,WNW,292,3.4,8.9,67,0.00,,,0.00,WUHU216WMR100,2013-02-09 10:36:00,
2013-02-09 05:41:00,25.3,16.3,29.29,North,0,2.5,5.8,68,0.00,,,0.00,WUHU216WMR100,2013-02-09 10:41:00,
2013-02-09 05:46:00,25.2,16.2,29.29,NNW,337,2.9,5.8,68,0.00,,,0.00,WUHU216WMR100,2013-02-09 10:46:00,
2013-02-09 05:51:00,25.2,15.8,29.29,ENE,67,3.8,6.3,67,0.00,,,0.00,WUHU216WMR100,2013-02-09 10:51:00,
2013-02-09 05:56:00,25.2,15.5,29.29,West,270,3.4,10.1,66,0.00,,,0.00,WUHU216WMR100,2013-02-09 10:56:00,
2013-02-09 06:01:00,25.2,14.8,29.29,NNW,337,4.5,10.1,64,0.00,,,0.00,WUHU216WMR100,2013-02-09 11:01:00,
2013-02-09 06:06:00,25.2,14.8,29.29,NNW,337,3.8,7.4,64,0.00,,,0.00,WUHU216WMR100,2013-02-09 11:06:00,
2013-02-09 06:11:00,25.2,14.4,29.29,North,0,4.5,7.4,63,0.00,,,0.00,WUHU216WMR100,2013-02-09 11:11:00,
2013-02-09 06:16:00,25.2,13.7,29.29,North,0,4.5,7.6,61,0.00,,,0.00,WUHU216WMR100,2013-02-09 11:16:00,
2013-02-09 06:21:00,25.2,14.0,29.29,NNE,22,4.9,7.6,62,0.00,,,0.00,WUHU216WMR100,2013-02-09 11:21:00,
2013-02-09 06:26:00,25.2,14.0,29.29,West,270,4.5,6.5,62,0.00,,,0.00,WUHU216WMR100,2013-02-09 11:26:00,
2013-02-09 06:31:00,25.2,14.0,29.29,NNE,22,3.6,6.5,62,0.00,,,0.00,WUHU216WMR100,2013-02-09 11:31:00,
2013-02-09 06:36:00,25.2,12.9,29.29,North,0,4.0,7.8,59,0.00,,,0.00,WUHU216WMR100,2013-02-09 11:36:00,
2013-02-09 06:41:00,25.2,13.3,29.29,NNE,22,4.3,8.1,60,0.00,,,0.00,WUHU216WMR100,2013-02-09 11:41:00,
2013-02-09 06:46:00,25.2,13.3,29.29,North,0,3.8,8.1,60,0.00,,,0.00,WUHU216WMR100,2013-02-09 11:46:00,
2013-02-09 06:52:00,25.2,13.3,29.29,North,0,4.7,6.9,60,0.00,,,0.00,WUHU216WMR100,2013-02-09 11:52:00,
2013-02-09 06:57:00,25.2,13.7,29.29,NNW,337,4.5,7.2,61,0.00,,,0.00,WUHU216WMR100,2013-02-09 11:57:00,
2013-02-09 07:05:00,25.0,13.1,29.29,North,0,1.3,7.6,60,0.00,,,0.00,WUHU216WMR100,2013-02-09 12:05:00,
2013-02-09 07:10:00,25.0,13.5,29.29,North,0,3.1,6.5,61,0.00,,,0.00,WUHU216WMR100,2013-02-09 12:10:00,
2013-02-09 07:15:00,25.0,13.9,29.29,NNE,22,2.2,6.0,62,0.00,,,0.00,WUHU216WMR100,2013-02-09 12:15:00,
2013-02-09 07:20:00,25.0,13.9,29.32,North,0,3.8,6.5,62,0.00,,,0.00,WUHU216WMR100,2013-02-09 12:20:00,
2013-02-09 07:25:00,25.0,14.2,29.32,NNW,337,3.1,6.5,63,0.00,,,0.00,WUHU216WMR100,2013-02-09 12:25:00,
2013-02-09 07:30:00,25.0,14.2,29.32,North,0,3.1,5.8,63,0.00,,,0.00,WUHU216WMR100,2013-02-09 12:30:00,
2013-02-09 07:35:00,25.0,14.2,29.32,North,0,2.2,5.8,63,0.00,,,0.00,WUHU216WMR100,2013-02-09 12:35:00,
2013-02-09 07:40:00,25.0,14.2,29.32,NNW,337,2.7,4.0,63,0.00,,,0.00,WUHU216WMR100,2013-02-09 12:40:00,
2013-02-09 07:45:00,25.2,14.4,29.32,WNW,292,1.6,4.7,63,0.00,,,0.00,WUHU216WMR100,2013-02-09 12:45:00,
2013-02-09 07:50:00,25.2,14.0,29.32,NNW,337,3.1,6.0,62,0.00,,,0.00,WUHU216WMR100,2013-02-09 12:50:00,
2013-02-09 07:55:00,25.2,13.7,29.32,NNW,337,3.8,7.4,61,0.00,,,0.00,WUHU216WMR100,2013-02-09 12:55:00,
2013-02-09 08:00:00,25.2,13.3,29.32,NNW,337,4.0,7.4,60,0.00,,,0.00,WUHU216WMR100,2013-02-09 13:00:00,
2013-02-09 08:05:00,25.3,13.8,29.32,NNW,337,2.2,6.0,61,0.00,,,0.00,WUHU216WMR100,2013-02-09 13:05:00,
2013-02-09 08:10:00,25.3,13.8,29.32,NNE,22,2.2,5.4,61,0.00,,,0.00,WUHU216WMR100,2013-02-09 13:10:00,
2013-02-09 08:15:00,25.3,13.4,29.32,NNW,337,5.6,6.3,60,0.00,,,0.00,WUHU216WMR100,2013-02-09 13:15:00,
2013-02-09 08:20:00,25.3,13.4,29.32,North,0,2.9,6.3,60,0.00,,,0.00,WUHU216WMR100,2013-02-09 13:20:00,
2013-02-09 08:25:00,25.5,13.6,29.32,North,0,4.3,6.0,60,0.00,,,0.00,WUHU216WMR100,2013-02-09 13:25:00,
2013-02-09 08:30:00,25.7,13.8,29.32,NNW,337,2.7,6.0,60,0.00,,,0.00,WUHU216WMR100,2013-02-09 13:30:00,
2013-02-09 08:35:00,25.7,12.6,29.32,NNW,337,3.8,7.4,57,0.00,,,0.00,WUHU216WMR100,2013-02-09 13:35:00,
2013-02-09 08:40:00,25.9,12.8,29.32,NNW,337,4.3,7.4,57,0.00,,,0.00,WUHU216WMR100,2013-02-09 13:40:00,
2013-02-09 08:45:00,26.1,13.0,29.32,NNE,22,3.4,6.5,57,0.00,,,0.00,WUHU216WMR100,2013-02-09 13:45:00,
2013-02-09 08:50:00,26.2,12.6,29.35,NNE,22,2.9,7.2,56,0.00,,,0.00,WUHU216WMR100,2013-02-09 13:50:00,
2013-02-09 08:55:00,26.4,13.2,29.35,NNW,337,3.8,7.2,57,0.00,,,0.00,WUHU216WMR100,2013-02-09 13:55:00,
2013-02-09 09:00:00,26.6,13.0,29.35,NNW,337,3.4,5.6,56,0.00,,,0.00,WUHU216WMR100,2013-02-09 14:00:00,
2013-02-09 09:07:00,26.4,12.8,29.35,NNE,22,5.6,7.6,56,0.00,,,0.00,WUHU216WMR100,2013-02-09 14:07:00,
2013-02-09 09:12:00,26.6,13.0,29.35,NNW,337,3.4,7.4,56,0.00,,,0.00,WUHU216WMR100,2013-02-09 14:12:00,
2013-02-09 09:17:00,27.0,13.4,29.35,NNE,22,2.0,6.3,56,0.00,,,0.00,WUHU216WMR100,2013-02-09 14:17:00,
2013-02-09 09:22:00,27.0,12.5,29.35,WNW,292,3.6,7.2,54,0.00,,,0.00,WUHU216WMR100,2013-02-09 14:22:00,
2013-02-09 09:27:00,27.1,13.1,29.35,North,0,3.4,7.2,55,0.00,,,0.00,WUHU216WMR100,2013-02-09 14:27:00,
2013-02-09 09:32:00,27.7,13.6,29.35,NNW,337,2.7,5.4,55,0.00,,,0.00,WUHU216WMR100,2013-02-09 14:32:00,
2013-02-09 09:37:00,27.5,13.0,29.35,WNW,292,4.0,6.5,54,0.00,,,0.00,WUHU216WMR100,2013-02-09 14:37:00,
2013-02-09 09:42:00,28.0,13.5,29.35,North,0,1.6,6.5,54,0.00,,,0.00,WUHU216WMR100,2013-02-09 14:42:00,
2013-02-09 09:48:00,28.6,14.0,29.35,WNW,292,2.0,5.6,54,0.00,,,0.00,WUHU216WMR100,2013-02-09 14:48:00,
2013-02-09 09:53:00,28.9,13.9,29.38,NW,315,2.2,5.6,53,0.00,,,0.00,WUHU216WMR100,2013-02-09 14:53:00,
2013-02-09 09:58:00,29.5,14.4,29.38,NNW,337,0.0,3.8,53,0.00,,,0.00,WUHU216WMR100,2013-02-09 14:58:00,
2013-02-09 10:03:00,29.5,14.0,29.38,NNW,337,2.9,4.9,52,0.00,,,0.00,WUHU216WMR100,2013-02-09 15:03:00,
2013-02-09 10:09:00,29.7,13.7,29.38,NNW,337,2.7,6.3,51,0.00,,,0.00,WUHU216WMR100,2013-02-09 15:09:00,
2013-02-09 10:14:00,29.8,13.8,29.38,North,0,3.6,6.3,51,0.00,,,0.00,WUHU216WMR100,2013-02-09 15:14:00,
2013-02-09 10:19:00,30.2,14.2,29.38,North,0,2.2,5.6,51,0.00,,,0.00,WUHU216WMR100,2013-02-09 15:19:00,
2013-02-09 10:24:00,30.7,14.2,29.38,NNW,337,3.1,6.0,50,0.00,,,0.00,WUHU216WMR100,2013-02-09 15:24:00,
2013-02-09 10:29:00,31.6,15.5,29.38,NNW,337,2.0,6.0,51,0.00,,,0.00,WUHU216WMR100,2013-02-09 15:29:00,
2013-02-09 10:34:00,31.6,14.1,29.35,ENE,67,4.0,6.0,48,0.00,,,0.00,WUHU216WMR100,2013-02-09 15:34:00,
2013-02-09 10:39:00,31.3,13.8,29.35,North,0,2.9,6.0,48,0.00,,,0.00,WUHU216WMR100,2013-02-09 15:39:00,
2013-02-09 10:44:00,31.3,13.8,29.35,North,0,0.0,4.9,48,0.00,,,0.00,WUHU216WMR100,2013-02-09 15:44:00,
2013-02-09 10:49:00,32.2,13.6,29.38,NNE,22,2.0,4.3,46,0.00,,,0.00,WUHU216WMR100,2013-02-09 15:49:00,
2013-02-09 10:54:00,35.1,16.8,29.38,NNE,22,2.0,4.3,47,0.00,,,0.00,WUHU216WMR100,2013-02-09 15:54:00,
2013-02-09 10:59:00,37.4,16.8,29.38,NE,45,3.1,6.0,43,0.00,,,0.00,WUHU216WMR100,2013-02-09 15:59:00,
2013-02-09 11:04:00,35.4,14.9,29.38,North,0,2.2,6.0,43,0.00,,,0.00,WUHU216WMR100,2013-02-09 16:04:00,
2013-02-09 11:09:00,34.2,13.3,29.38,North,0,2.7,5.8,42,0.00,,,0.00,WUHU216WMR100,2013-02-09 16:09:00,
2013-02-09 11:14:00,34.3,13.9,29.38,North,0,1.6,5.8,43,0.00,,,0.00,WUHU216WMR100,2013-02-09 16:14:00,
2013-02-09 11:19:00,34.0,13.7,29.38,NNW,337,1.6,5.4,43,0.00,,,0.00,WUHU216WMR100,2013-02-09 16:19:00,
2013-02-09 11:24:00,32.5,12.3,29.38,North,0,4.7,7.4,43,0.00,,,0.00,WUHU216WMR100,2013-02-09 16:24:00,
2013-02-09 11:29:00,33.8,14.0,29.38,NNE,22,1.3,7.4,44,0.00,,,0.00,WUHU216WMR100,2013-02-09 16:29:00,
2013-02-09 11:34:00,33.4,13.1,29.38,WNW,292,2.9,4.7,43,0.00,,,0.00,WUHU216WMR100,2013-02-09 16:34:00,
2013-02-09 11:39:00,34.9,14.5,29.38,North,0,3.1,4.9,43,0.00,,,0.00,WUHU216WMR100,2013-02-09 16:39:00,
2013-02-09 11:44:00,36.5,14.8,29.38,NNE,22,5.4,8.1,41,0.00,,,0.00,WUHU216WMR100,2013-02-09 16:44:00,
2013-02-09 11:49:00,39.6,17.6,29.38,West,270,1.6,8.1,41,0.00,,,0.00,WUHU216WMR100,2013-02-09 16:49:00,
2013-02-09 11:54:00,38.8,15.7,29.38,NNW,337,3.4,5.4,39,0.00,,,0.00,WUHU216WMR100,2013-02-09 16:54:00,
2013-02-09 11:59:00,38.8,16.3,29.38,NNE,22,2.0,4.7,40,0.00,,,0.00,WUHU216WMR100,2013-02-09 16:59:00,
2013-02-09 12:04:00,40.1,17.5,29.35,NNE,22,0.0,3.8,40,0.00,,,0.00,WUHU216WMR100,2013-02-09 17:04:00,
2013-02-09 12:09:00,39.0,15.9,29.35,NNW,337,3.8,5.4,39,0.00,,,0.00,WUHU216WMR100,2013-02-09 17:09:00,
2013-02-09 12:14:00,37.9,14.3,29.35,NNW,337,4.0,5.8,38,0.00,,,0.00,WUHU216WMR100,2013-02-09 17:14:00,
2013-02-09 12:19:00,38.8,15.7,29.35,WSW,247,2.0,5.8,39,0.00,,,0.00,WUHU216WMR100,2013-02-09 17:19:00,
2013-02-09 12:24:00,38.7,14.4,29.35,South,180,3.4,4.9,37,0.00,,,0.00,WUHU216WMR100,2013-02-09 17:24:00,
2013-02-09 12:29:00,38.1,14.5,29.35,WNW,292,2.5,5.4,38,0.00,,,0.00,WUHU216WMR100,2013-02-09 17:29:00,
2013-02-09 12:34:00,39.7,15.3,29.35,NNW,337,2.9,5.4,37,0.00,,,0.00,WUHU216WMR100,2013-02-09 17:34:00,
2013-02-09 12:39:00,40.1,15.7,29.35,WNW,292,3.1,4.3,37,0.00,,,0.00,WUHU216WMR100,2013-02-09 17:39:00,
2013-02-09 12:44:00,39.4,14.4,29.35,SSW,202,3.1,6.0,36,0.00,,,0.00,WUHU216WMR100,2013-02-09 17:44:00,
2013-02-09 12:49:00,40.1,16.3,29.35,WNW,292,2.5,6.0,38,0.00,,,0.00,WUHU216WMR100,2013-02-09 17:49:00,
2013-02-09 12:54:00,40.6,15.5,29.35,NNW,337,0.0,4.0,36,0.00,,,0.00,WUHU216WMR100,2013-02-09 17:54:00,
2013-02-09 12:59:00,42.1,16.2,29.35,NNW,337,1.3,3.6,35,0.00,,,0.00,WUHU216WMR100,2013-02-09 17:59:00,
2013-02-09 13:04:00,41.2,14.7,29.35,NNE,22,3.1,5.6,34,0.00,,,0.00,WUHU216WMR100,2013-02-09 18:04:00,
2013-02-09 13:09:00,40.1,14.4,29.35,ENE,67,2.9,6.5,35,0.00,,,0.00,WUHU216WMR100,2013-02-09 18:09:00,
2013-02-09 13:14:00,39.9,13.5,29.35,NNW,337,2.9,6.5,34,0.00,,,0.00,WUHU216WMR100,2013-02-09 18:14:00,
2013-02-09 13:19:00,40.5,14.7,29.35,NNW,337,3.1,4.9,35,0.00,,,0.00,WUHU216WMR100,2013-02-09 18:19:00,
2013-02-09 13:24:00,40.3,14.6,29.35,NNW,337,2.7,5.4,35,0.00,,,0.00,WUHU216WMR100,2013-02-09 18:24:00,
2013-02-09 13:29:00,39.7,13.4,29.35,NNW,337,4.3,5.8,34,0.00,,,0.00,WUHU216WMR100,2013-02-09 18:29:00,
2013-02-09 13:34:00,40.3,13.9,29.35,NNE,22,3.1,5.8,34,0.00,,,0.00,WUHU216WMR100,2013-02-09 18:34:00,
2013-02-09 13:39:00,40.3,13.9,29.35,NNE,22,3.6,5.8,34,0.00,,,0.00,WUHU216WMR100,2013-02-09 18:39:00,
2013-02-09 13:45:00,39.2,13.6,29.35,West,270,2.7,5.8,35,0.00,,,0.00,WUHU216WMR100,2013-02-09 18:45:00,
2013-02-09 13:50:00,40.5,15.4,29.32,WNW,292,2.5,4.9,36,0.00,,,0.00,WUHU216WMR100,2013-02-09 18:50:00,
2013-02-09 13:55:00,40.6,15.5,29.32,WNW,292,2.2,4.9,36,0.00,,,0.00,WUHU216WMR100,2013-02-09 18:55:00,
2013-02-09 14:00:00,40.5,14.7,29.32,SSE,157,3.6,4.0,35,0.00,,,0.00,WUHU216WMR100,2013-02-09 19:00:00,
2013-02-09 14:05:00,40.5,14.7,29.35,SSE,157,2.0,5.4,35,0.00,,,0.00,WUHU216WMR100,2013-02-09 19:05:00,
2013-02-09 14:10:00,39.7,13.4,29.35,WSW,247,4.0,5.4,34,0.00,,,0.00,WUHU216WMR100,2013-02-09 19:10:00,
2013-02-09 14:15:00,39.9,14.2,29.35,SSW,202,2.7,6.5,35,0.00,,,0.00,WUHU216WMR100,2013-02-09 19:15:00,
2013-02-09 14:20:00,39.6,13.3,29.32,SW,225,3.1,6.5,34,0.00,,,0.00,WUHU216WMR100,2013-02-09 19:20:00,
2013-02-09 14:25:00,40.5,14.7,29.32,NNE,22,2.0,5.4,35,0.00,,,0.00,WUHU216WMR100,2013-02-09 19:25:00,
2013-02-09 14:30:00,40.8,14.3,29.32,West,270,2.9,4.9,34,0.00,,,0.00,WUHU216WMR100,2013-02-09 19:30:00,
2013-02-09 14:35:00,40.3,13.2,29.32,SSW,202,2.7,4.7,33,0.00,,,0.00,WUHU216WMR100,2013-02-09 19:35:00,
2013-02-09 14:40:00,39.7,12.7,29.32,WSW,247,2.2,4.7,33,0.00,,,0.00,WUHU216WMR100,2013-02-09 19:40:00,
2013-02-09 14:45:00,39.9,13.5,29.32,WSW,247,2.7,5.8,34,0.00,,,0.00,WUHU216WMR100,2013-02-09 19:45:00,
2013-02-09 14:50:00,40.3,13.9,29.32,West,270,2.9,5.8,34,0.00,,,0.00,WUHU216WMR100,2013-02-09 19:50:00,
2013-02-09 14:55:00,39.6,12.6,29.32,SSW,202,3.1,5.8,33,0.00,,,0.00,WUHU216WMR100,2013-02-09 19:55:00,
2013-02-09 15:00:00,39.9,12.9,29.32,WSW,247,2.0,5.8,33,0.00,,,0.00,WUHU216WMR100,2013-02-09 20:00:00,
2013-02-09 15:05:00,38.5,11.6,29.32,WSW,247,2.9,5.8,33,0.00,,,0.00,WUHU216WMR100,2013-02-09 20:05:00,
2013-02-09 15:10:00,40.3,14.6,29.32,NW,315,2.2,5.6,35,0.00,,,0.00,WUHU216WMR100,2013-02-09 20:10:00,
2013-02-09 15:15:00,39.9,13.5,29.32,West,270,2.0,4.0,34,0.00,,,0.00,WUHU216WMR100,2013-02-09 20:15:00,
2013-02-09 15:20:00,40.3,13.9,29.32,North,0,1.1,4.0,34,0.00,,,0.00,WUHU216WMR100,2013-02-09 20:20:00,
2013-02-09 15:25:00,40.1,13.7,29.32,NNW,337,2.9,4.0,34,0.00,,,0.00,WUHU216WMR100,2013-02-09 20:25:00,
2013-02-09 15:30:00,39.6,13.3,29.32,WSW,247,2.9,4.3,34,0.00,,,0.00,WUHU216WMR100,2013-02-09 20:30:00,
2013-02-09 15:35:00,39.4,13.1,29.32,NNW,337,2.7,4.9,34,0.00,,,0.00,WUHU216WMR100,2013-02-09 20:35:00,
2013-02-09 15:40:00,38.7,12.5,29.32,WSW,247,2.5,4.9,34,0.00,,,0.00,WUHU216WMR100,2013-02-09 20:40:00,
2013-02-09 15:45:00,39.4,13.8,29.32,NW,315,1.6,4.9,35,0.00,,,0.00,WUHU216WMR100,2013-02-09 20:45:00,
2013-02-09 15:50:00,39.6,13.9,29.32,WSW,247,2.2,3.1,35,0.00,,,0.00,WUHU216WMR100,2013-02-09 20:50:00,
2013-02-09 15:55:00,39.0,12.7,29.32,SSE,157,2.7,3.1,34,0.00,,,0.00,WUHU216WMR100,2013-02-09 20:55:00,
2013-02-09 16:00:00,39.0,13.4,29.32,WSW,247,1.6,3.4,35,0.00,,,0.00,WUHU216WMR100,2013-02-09 21:00:00,
2013-02-09 16:05:00,38.5,13.0,29.32,NNW,337,2.9,4.0,35,0.00,,,0.00,WUHU216WMR100,2013-02-09 21:05:00,
2013-02-09 16:10:00,38.7,13.1,29.32,SSW,202,1.1,4.0,35,0.00,,,0.00,WUHU216WMR100,2013-02-09 21:10:00,
2013-02-09 16:15:00,37.9,12.4,29.32,West,270,2.5,4.0,35,0.00,,,0.00,WUHU216WMR100,2013-02-09 21:15:00,
2013-02-09 16:20:00,37.4,12.0,29.35,WSW,247,2.7,4.0,35,0.00,,,0.00,WUHU216WMR100,2013-02-09 21:20:00,
2013-02-09 16:25:00,36.7,12.0,29.35,WNW,292,3.1,4.9,36,0.00,,,0.00,WUHU216WMR100,2013-02-09 21:25:00,
2013-02-09 16:30:00,35.4,12.1,29.35,WNW,292,3.4,5.6,38,0.00,,,0.00,WUHU216WMR100,2013-02-09 21:30:00,
2013-02-09 16:35:00,34.5,12.4,29.35,NNW,337,2.9,5.6,40,0.00,,,0.00,WUHU216WMR100,2013-02-09 21:35:00,
2013-02-09 16:40:00,34.2,12.2,29.35,North,0,1.3,4.9,40,0.00,,,0.00,WUHU216WMR100,2013-02-09 21:40:00,
2013-02-09 16:45:00,33.6,12.2,29.35,North,0,3.4,4.0,41,0.00,,,0.00,WUHU216WMR100,2013-02-09 21:45:00,
2013-02-09 16:50:00,33.4,12.0,29.32,NW,315,0.9,4.0,41,0.00,,,0.00,WUHU216WMR100,2013-02-09 21:50:00,
2013-02-09 16:55:00,33.1,11.8,29.32,NNW,337,0.0,3.4,41,0.00,,,0.00,WUHU216WMR100,2013-02-09 21:55:00,
2013-02-09 17:00:00,32.9,12.1,29.32,NNW,337,2.0,2.7,42,0.00,,,0.00,WUHU216WMR100,2013-02-09 22:00:00,
2013-02-09 17:05:00,32.7,11.9,29.32,NNW,337,1.3,2.7,42,0.00,,,0.00,WUHU216WMR100,2013-02-09 22:05:00,
2013-02-09 17:10:00,32.5,12.3,29.32,NNW,337,1.3,2.7,43,0.00,,,0.00,WUHU216WMR100,2013-02-09 22:10:00,
2013-02-09 17:15:00,32.5,12.3,29.32,NNW,337,0.9,2.7,43,0.00,,,0.00,WUHU216WMR100,2013-02-09 22:15:00,
2013-02-09 17:20:00,32.5,12.3,29.32,NNW,337,0.0,2.7,43,0.00,,,0.00,WUHU216WMR100,2013-02-09 22:20:00,
2013-02-09 17:25:00,32.2,12.0,29.32,NNW,337,2.2,2.7,43,0.00,,,0.00,WUHU216WMR100,2013-02-09 22:25:00,
2013-02-09 17:30:00,31.8,11.7,29.32,NNW,337,1.6,2.7,43,0.00,,,0.00,WUHU216WMR100,2013-02-09 22:30:00,
2013-02-09 17:35:00,31.8,11.7,29.32,NNW,337,1.6,3.1,43,0.00,,,0.00,WUHU216WMR100,2013-02-09 22:35:00,
2013-02-09 17:40:00,30.6,11.1,29.32,WNW,292,1.6,3.1,44,0.00,,,0.00,WUHU216WMR100,2013-02-09 22:40:00,
2013-02-09 17:45:00,30.2,11.3,29.32,NW,315,1.6,2.7,45,0.00,,,0.00,WUHU216WMR100,2013-02-09 22:45:00,
2013-02-09 17:50:00,29.7,10.8,29.32,WNW,292,0.0,2.5,45,0.00,,,0.00,WUHU216WMR100,2013-02-09 22:50:00,
2013-02-09 17:55:00,29.1,10.8,29.32,NNW,337,0.0,2.0,46,0.00,,,0.00,WUHU216WMR100,2013-02-09 22:55:00,
2013-02-09 18:00:00,28.6,10.3,29.32,NNW,337,0.0,2.0,46,0.00,,,0.00,WUHU216WMR100,2013-02-09 23:00:00,
2013-02-09 18:05:00,28.2,10.4,29.29,NNW,337,0.0,0.0,47,0.00,,,0.00,WUHU216WMR100,2013-02-09 23:05:00,
2013-02-09 18:10:00,27.5,10.7,29.29,NNW,337,0.0,0.0,49,0.00,,,0.00,WUHU216WMR100,2013-02-09 23:10:00,
2013-02-09 18:15:00,27.1,9.9,29.29,NNW,337,0.0,0.0,48,0.00,,,0.00,WUHU216WMR100,2013-02-09 23:15:00,
2013-02-09 18:20:00,27.0,10.3,29.32,NNW,337,0.0,0.0,49,0.00,,,0.00,WUHU216WMR100,2013-02-09 23:20:00,
2013-02-09 18:25:00,27.0,10.8,29.32,NNW,337,0.0,0.0,50,0.00,,,0.00,WUHU216WMR100,2013-02-09 23:25:00,
2013-02-09 18:30:00,26.6,10.8,29.32,NNW,337,0.0,0.0,51,0.00,,,0.00,WUHU216WMR100,2013-02-09 23:30:00,
2013-02-09 18:35:00,26.2,10.9,29.32,NNW,337,0.0,0.0,52,0.00,,,0.00,WUHU216WMR100,2013-02-09 23:35:00,
2013-02-09 18:40:00,25.9,10.6,29.32,NNW,337,0.0,0.0,52,0.00,,,0.00,WUHU216WMR100,2013-02-09 23:40:00,
2013-02-09 18:45:00,25.7,10.5,29.32,NNW,337,0.0,0.0,52,0.00,,,0.00,WUHU216WMR100,2013-02-09 23:45:00,
2013-02-09 18:50:00,25.5,10.3,29.32,NNW,337,0.0,0.0,52,0.00,,,0.00,WUHU216WMR100,2013-02-09 23:50:00,
2013-02-09 18:55:00,25.5,10.7,29.32,NNW,337,0.0,0.0,53,0.00,,,0.00,WUHU216WMR100,2013-02-09 23:55:00,
2013-02-09 19:00:00,25.2,10.9,29.32,NNW,337,0.0,0.0,54,0.00,,,0.00,WUHU216WMR100,2013-02-10 00:00:00,
2013-02-09 19:05:00,24.8,10.5,29.32,NNW,337,0.0,0.0,54,0.00,,,0.00,WUHU216WMR100,2013-02-10 00:05:00,
2013-02-09 19:10:00,24.6,10.3,29.32,NNW,337,0.0,0.0,54,0.00,,,0.00,WUHU216WMR100,2013-02-10 00:10:00,
2013-02-09 19:15:00,24.4,10.5,29.32,NNW,337,0.0,0.0,55,0.00,,,0.00,WUHU216WMR100,2013-02-10 00:15:00,
2013-02-09 19:20:00,24.4,10.5,29.32,NNW,337,0.0,0.0,55,0.00,,,0.00,WUHU216WMR100,2013-02-10 00:20:00,
2013-02-09 19:25:00,24.1,10.7,29.32,NNW,337,0.0,0.0,56,0.00,,,0.00,WUHU216WMR100,2013-02-10 00:25:00,
2013-02-09 19:31:00,23.9,10.5,29.32,NNW,337,0.0,0.0,56,0.00,,,0.00,WUHU216WMR100,2013-02-10 00:31:00,
2013-02-09 19:36:00,23.7,10.7,29.32,NNW,337,0.0,0.0,57,0.00,,,0.00,WUHU216WMR100,2013-02-10 00:36:00,
2013-02-09 19:41:00,23.7,10.7,29.32,NNW,337,0.0,0.0,57,0.00,,,0.00,WUHU216WMR100,2013-02-10 00:41:00,
2013-02-09 19:46:00,23.7,11.1,29.32,NNW,337,0.0,0.0,58,0.00,,,0.00,WUHU216WMR100,2013-02-10 00:46:00,
2013-02-09 19:51:00,23.4,10.8,29.32,NNW,337,0.0,0.0,58,0.00,,,0.00,WUHU216WMR100,2013-02-10 00:51:00,
2013-02-09 19:56:00,23.0,10.4,29.32,NNW,337,0.0,0.0,58,0.00,,,0.00,WUHU216WMR100,2013-02-10 00:56:00,
2013-02-09 20:01:00,22.8,10.6,29.32,NNW,337,0.0,0.0,59,0.00,,,0.00,WUHU216WMR100,2013-02-10 01:01:00,
2013-02-09 20:06:00,22.8,10.6,29.32,NNW,337,0.0,0.0,59,0.00,,,0.00,WUHU216WMR100,2013-02-10 01:06:00,
2013-02-09 20:11:00,22.8,11.0,29.32,NNW,337,0.0,0.0,60,0.00,,,0.00,WUHU216WMR100,2013-02-10 01:11:00,
2013-02-09 20:16:00,22.6,11.2,29.32,NNW,337,0.0,0.0,61,0.00,,,0.00,WUHU216WMR100,2013-02-10 01:16:00,
2013-02-09 20:21:00,22.3,10.9,29.32,NNW,337,0.0,0.0,61,0.00,,,0.00,WUHU216WMR100,2013-02-10 01:21:00,
2013-02-09 20:26:00,22.5,10.7,29.32,NNW,337,0.0,0.0,60,0.00,,,0.00,WUHU216WMR100,2013-02-10 01:26:00,
2013-02-09 20:31:00,22.5,11.5,29.32,NNW,337,0.0,0.0,62,0.00,,,0.00,WUHU216WMR100,2013-02-10 01:31:00,
2013-02-09 20:36:00,22.5,11.5,29.32,NNW,337,0.0,0.0,62,0.00,,,0.00,WUHU216WMR100,2013-02-10 01:36:00,
2013-02-09 20:41:00,22.5,11.5,29.32,NNW,337,0.0,0.0,62,0.00,,,0.00,WUHU216WMR100,2013-02-10 01:41:00,
2013-02-09 20:46:00,22.3,11.7,29.32,NNW,337,0.0,0.0,63,0.00,,,0.00,WUHU216WMR100,2013-02-10 01:46:00,
2013-02-09 20:51:00,22.1,11.8,29.32,NNW,337,0.0,0.0,64,0.00,,,0.00,WUHU216WMR100,2013-02-10 01:51:00,
2013-02-09 20:56:00,21.9,11.6,29.32,NNW,337,0.0,0.0,64,0.00,,,0.00,WUHU216WMR100,2013-02-10 01:56:00,
2013-02-09 21:01:00,21.9,11.6,29.32,NNW,337,0.0,0.0,64,0.00,,,0.00,WUHU216WMR100,2013-02-10 02:01:00,
2013-02-09 21:06:00,21.7,11.8,29.32,NNW,337,0.0,0.0,65,0.00,,,0.00,WUHU216WMR100,2013-02-10 02:06:00,
2013-02-09 21:11:00,21.7,12.1,29.32,NNW,337,0.0,0.0,66,0.00,,,0.00,WUHU216WMR100,2013-02-10 02:11:00,
2013-02-09 21:16:00,21.2,12.0,29.32,NNW,337,0.0,0.0,67,0.00,,,0.00,WUHU216WMR100,2013-02-10 02:16:00,
2013-02-09 21:21:00,21.0,11.8,29.32,NNW,337,0.0,0.0,67,0.00,,,0.00,WUHU216WMR100,2013-02-10 02:21:00,
2013-02-09 21:26:00,20.8,12.0,29.32,NNW,337,0.0,0.0,68,0.00,,,0.00,WUHU216WMR100,2013-02-10 02:26:00,
2013-02-09 21:31:00,20.7,11.9,29.32,NNW,337,0.0,0.0,68,0.00,,,0.00,WUHU216WMR100,2013-02-10 02:31:00,
2013-02-09 21:36:00,20.8,12.3,29.32,North,0,0.0,0.0,69,0.00,,,0.00,WUHU216WMR100,2013-02-10 02:36:00,
2013-02-09 21:41:00,20.8,12.3,29.32,North,0,0.0,0.0,69,0.00,,,0.00,WUHU216WMR100,2013-02-10 02:41:00,
2013-02-09 21:46:00,21.2,13.0,29.32,North,0,0.0,0.0,70,0.00,,,0.00,WUHU216WMR100,2013-02-10 02:46:00,
2013-02-09 21:51:00,21.4,12.9,29.32,North,0,0.0,0.0,69,0.00,,,0.00,WUHU216WMR100,2013-02-10 02:51:00,
2013-02-09 21:56:00,21.2,13.0,29.32,NNE,22,0.0,0.0,70,0.00,,,0.00,WUHU216WMR100,2013-02-10 02:56:00,
2013-02-09 22:01:00,20.8,12.9,29.32,NNE,22,0.0,0.0,71,0.00,,,0.00,WUHU216WMR100,2013-02-10 03:01:00,
2013-02-09 22:06:00,20.7,12.8,29.32,NNE,22,0.0,0.0,71,0.00,,,0.00,WUHU216WMR100,2013-02-10 03:06:00,
2013-02-09 22:11:00,20.5,12.9,29.32,NNE,22,0.0,0.0,72,0.00,,,0.00,WUHU216WMR100,2013-02-10 03:11:00,
2013-02-09 22:16:00,20.3,12.8,29.32,NNE,22,0.0,0.0,72,0.00,,,0.00,WUHU216WMR100,2013-02-10 03:16:00,
2013-02-09 22:21:00,20.3,13.1,29.32,NNE,22,0.0,0.0,73,0.00,,,0.00,WUHU216WMR100,2013-02-10 03:21:00,
2013-02-09 22:26:00,20.3,13.4,29.32,NNE,22,0.0,0.0,74,0.00,,,0.00,WUHU216WMR100,2013-02-10 03:26:00,
2013-02-09 22:31:00,20.1,13.2,29.32,NNE,22,0.0,0.0,74,0.00,,,0.00,WUHU216WMR100,2013-02-10 03:31:00,
2013-02-09 22:36:00,19.8,12.6,29.32,NNE,22,0.0,0.0,73,0.00,,,0.00,WUHU216WMR100,2013-02-10 03:36:00,
2013-02-09 22:41:00,19.8,12.6,29.32,NNE,22,0.0,0.0,73,0.00,,,0.00,WUHU216WMR100,2013-02-10 03:41:00,
2013-02-09 22:46:00,19.6,12.4,29.32,NNE,22,0.0,0.0,73,0.00,,,0.00,WUHU216WMR100,2013-02-10 03:46:00,
2013-02-09 22:51:00,19.6,12.4,29.29,NNE,22,0.0,0.0,73,0.00,,,0.00,WUHU216WMR100,2013-02-10 03:51:00,
2013-02-09 22:56:00,19.4,12.5,29.29,NNE,22,0.0,0.0,74,0.00,,,0.00,WUHU216WMR100,2013-02-10 03:56:00,
2013-02-09 23:01:00,19.6,12.7,29.29,NNE,22,0.0,0.0,74,0.00,,,0.00,WUHU216WMR100,2013-02-10 04:01:00,
2013-02-09 23:06:00,19.2,12.6,29.29,NNE,22,0.0,0.0,75,0.00,,,0.00,WUHU216WMR100,2013-02-10 04:06:00,
2013-02-09 23:11:00,19.0,12.4,29.29,NNE,22,0.0,0.0,75,0.00,,,0.00,WUHU216WMR100,2013-02-10 04:11:00,
2013-02-09 23:16:00,19.2,12.6,29.29,NNE,22,0.0,0.0,75,0.00,,,0.00,WUHU216WMR100,2013-02-10 04:16:00,
2013-02-09 23:21:00,18.7,12.1,29.29,NNE,22,0.0,0.0,75,0.00,,,0.00,WUHU216WMR100,2013-02-10 04:21:00,
2013-02-09 23:26:00,18.5,12.2,29.29,NNE,22,0.0,0.0,76,0.00,,,0.00,WUHU216WMR100,2013-02-10 04:26:00,
2013-02-09 23:31:00,18.5,12.2,29.29,NNE,22,0.0,0.0,76,0.00,,,0.00,WUHU216WMR100,2013-02-10 04:31:00,
2013-02-09 23:36:00,18.5,12.2,29.29,NNE,22,0.0,0.0,76,0.00,,,0.00,WUHU216WMR100,2013-02-10 04:36:00,
2013-02-09 23:41:00,18.5,12.5,29.29,NNE,22,0.0,0.0,77,0.00,,,0.00,WUHU216WMR100,2013-02-10 04:41:00,
2013-02-09 23:46:00,18.5,12.5,29.29,NNE,22,0.0,0.0,77,0.00,,,0.00,WUHU216WMR100,2013-02-10 04:46:00,
2013-02-09 23:51:00,18.1,12.1,29.29,NNE,22,0.0,0.0,77,0.00,,,0.00,WUHU216WMR100,2013-02-10 04:51:00,
2013-02-09 23:56:00,18.1,12.1,29.29,NNE,22,0.0,0.0,77,0.00,,,0.00,WUHU216WMR100,2013-02-10 04:56:00,